Weather History for Hastings, NE

Change the Weather History Date:

Wednesday, July 10, 2013

  Actual Average Record
Temperature  
Mean Temperature 77 °F 77 °F  
Max Temperature 85 °F 88 °F 107 °F (1935)
Min Temperature 68 °F 66 °F 52 °F (1952)
Degree Days  
Heating Degree Days 0 0  
Month to date heating degree days 0 0  
Since 1 June heating degree days 27 21  
Since 1 July heating degree days 0 0  
Cooling Degree Days 12 12  
Month to date cooling degree days 127 117  
Year to date cooling degree days 437 401  
Since 1 June cooling degree days 363 342  
Growing Degree Days 26 (Base 50)    
Moisture  
Dew Point 63 °F    
Average Humidity 64    
Maximum Humidity 84    
Minimum Humidity 43    
Precipitation  
Precipitation T in 0.12 in 2.81 in (1958)
Month to date precipitation 0.15 1.34  
Year to date precipitation 13.19 14.96  
Snow  
Snow 0.00 in 0.00 in - ()
Month to date snowfall 0.0 0.0  
Since 1 June snowfall 0.0 0.0  
Since 1 July snowfall 0.0 0.0  
Snow Depth 0.00 in    
Sea Level Pressure  
Sea Level Pressure 30.04 in    
Wind  
Wind Speed 9 mph (ENE)    
Max Wind Speed 16 mph    
Max Gust Speed 21 mph    
Visibility 10 miles    
Events      
T = Trace of Precipitation, MM = Missing Value Source: NWS Daily Summary

Daily Weather History Graph

Daily Weather History Graph

Search for Another Location

Airport:

Trip Planner

Search our weather history database for the weather conditions in past years. The results will help you decide how hot, cold, wet, or windy it might be!

Date:

Astronomy

Jul. 10, 2013 Rise Set
Actual Time 6:12 AM CDT 9:05 PM CDT
Civil Twilight 5:39 AM CDT 9:38 PM CDT
Nautical Twilight 4:58 AM CDT 10:19 PM CDT
Astronomical Twilight 4:10 AM CDT 11:06 PM CDT
Moon 8:35 AM CDT (7/10) 10:15 PM CDT (7/10)
Length of Visible Light 15h 58m
Length of Day
14h 53m
Waxing Crescent, 5% of the Moon is Illuminated
Jul 10
Waxing Crescent
Jul 15
First Quarter
Jul 22
Full
Jul 29
Last Quarter
Aug 6
New

Hourly Weather History & Observations

Time (CDT) Temp. Heat Index Dew Point Humidity Pressure Visibility Wind Dir Wind Speed Gust Speed Precip Events Conditions
12:53 AM 75.9 °F - 68.0 °F 76% 30.01 in 10.0 mi NE 3.5 mph - N/A   Overcast
1:53 AM 75.0 °F - 66.9 °F 76% 30.03 in 10.0 mi North 8.1 mph - N/A   Partly Cloudy
2:53 AM 73.0 °F - 66.0 °F 79% 30.03 in 10.0 mi North 5.8 mph - N/A   Clear
3:53 AM 73.0 °F - 64.9 °F 76% 30.04 in 10.0 mi NE 5.8 mph - N/A   Overcast
4:53 AM 71.1 °F - 64.9 °F 81% 30.05 in 10.0 mi NE 3.5 mph - N/A   Scattered Clouds
5:53 AM 70.0 °F - 64.0 °F 81% 30.04 in 10.0 mi North 5.8 mph - N/A   Clear
6:53 AM 69.1 °F - 64.0 °F 84% 30.04 in 10.0 mi NNE 6.9 mph - N/A   Clear
7:53 AM 73.0 °F - 63.0 °F 71% 30.04 in 10.0 mi NNE 8.1 mph - N/A   Clear
8:53 AM 75.9 °F - 63.0 °F 64% 30.05 in 10.0 mi NE 10.4 mph - N/A   Clear
9:53 AM 79.0 °F - 63.0 °F 58% 30.07 in 10.0 mi NE 12.7 mph - N/A   Clear
10:53 AM 82.0 °F 82.7 °F 61.0 °F 49% 30.06 in 10.0 mi ENE 12.7 mph - N/A   Clear
11:53 AM 82.0 °F 82.1 °F 59.0 °F 45% 30.10 in 10.0 mi NE 11.5 mph - N/A   Clear
12:53 PM 82.9 °F 82.6 °F 57.9 °F 42% 30.09 in 10.0 mi East 10.4 mph - N/A   Clear
1:53 PM 82.0 °F 82.1 °F 59.0 °F 45% 30.08 in 10.0 mi East 8.1 mph - N/A   Clear
2:53 PM 82.9 °F 82.8 °F 59.0 °F 44% 30.07 in 10.0 mi East 10.4 mph - N/A   Clear
3:53 PM 81.0 °F 81.9 °F 62.1 °F 52% 30.06 in 10.0 mi NE 5.8 mph - N/A   Clear
4:53 PM 82.0 °F 83.1 °F 63.0 °F 52% 30.02 in 10.0 mi SSE 9.2 mph - 0.00 in   Partly Cloudy
5:53 PM 84.0 °F 84.4 °F 61.0 °F 46% 30.01 in 10.0 mi SE 12.7 mph - N/A   Clear
6:53 PM 82.9 °F 83.2 °F 60.1 °F 46% 29.99 in 10.0 mi SE 13.8 mph - N/A   Clear
7:53 PM 82.0 °F 82.7 °F 61.0 °F 49% 29.98 in 10.0 mi East 10.4 mph - N/A   Clear
8:53 PM 78.1 °F - 62.1 °F 58% 29.97 in 10.0 mi East 9.2 mph - N/A   Clear
9:53 PM 75.0 °F - 64.0 °F 69% 30.01 in 10.0 mi East 6.9 mph - N/A   Clear
10:53 PM 73.0 °F - 64.0 °F 73% 30.04 in 10.0 mi East 5.8 mph - N/A   Mostly Cloudy
11:53 PM 73.0 °F - 63.0 °F 71% 30.01 in 10.0 mi ESE 11.5 mph - N/A   Partly Cloudy